CST,Max TemperatureF,Mean TemperatureF,Min TemperatureF,Max Dew PointF,MeanDew PointF,Min DewpointF,Max Humidity, Mean Humidity, Min Humidity, Max Sea Level PressureIn, Mean Sea Level PressureIn, Min Sea Level PressureIn, Max VisibilityMiles, Mean VisibilityMiles, Min VisibilityMiles, Max Wind SpeedMPH, Mean Wind SpeedMPH, Max Gust SpeedMPH,PrecipitationIn, CloudCover, Events, WindDirDegrees
2012-11-1,48,38,28,32,24,10,87,56,33,29.97,29.87,29.82,10,10,10,15,6,21,0.00,6,,305
2012-11-2,46,37,28,30,25,21,93,69,39,30.21,30.08,29.97,10,10,10,8,3,,0.00,0,,346
2012-11-3,42,34,26,27,25,23,86,73,53,30.27,30.23,30.21,10,10,10,7,1,,0.00,2,,17
2012-11-4,44,32,21,28,24,19,93,76,49,30.28,30.24,30.20,10,10,10,6,1,,0.00,0,,60
2012-11-5,42,32,23,28,24,19,93,78,49,30.25,30.20,30.09,10,10,10,8,2,,0.00,1,,8
2012-11-6,37,30,23,34,32,21,100,91,86,30.09,29.92,29.84,10,4,2,9,3,,0.00,8,Rain-Snow,149
2012-11-7,42,37,32,37,34,30,100,89,76,30.15,30.08,29.92,10,4,0,7,2,,0.00,8,Fog,277
2012-11-8,50,39,28,37,33,28,100,80,54,30.15,30.08,30.01,10,7,0,14,3,18,0.00,3,Fog,180
2012-11-9,46,40,35,41,38,32,93,81,71,30.10,30.06,30.03,10,7,4,10,3,18,0.00,8,,57
2012-11-10,62,52,41,54,47,37,93,78,59,30.01,29.81,29.71,10,7,2,13,7,20,0.00,5,Rain,117
2012-11-11,62,48,33,55,47,30,94,82,59,29.87,29.73,29.61,10,9,2,18,11,26,0.72,6,Rain,206
2012-11-12,33,30,26,30,19,14,87,67,55,30.26,30.04,29.87,10,10,2,21,14,26,0.00,8,Snow,257
2012-11-13,41,31,21,23,20,16,86,65,39,30.43,30.38,30.27,10,10,10,9,5,,0.00,1,,243
2012-11-14,50,40,30,30,28,23,80,67,43,30.43,30.35,30.29,10,10,10,12,5,,0.00,3,,164
2012-11-15,55,44,32,30,29,27,93,67,33,30.37,30.27,30.21,10,10,3,13,5,17,0.00,1,,195
2012-11-16,42,35,28,32,29,23,87,75,65,30.51,30.46,30.37,10,10,10,8,4,,0.00,5,,45
2012-11-17,53,43,33,36,33,32,93,78,47,30.49,30.44,30.41,10,6,0,8,4,,0.00,4,Fog,155
2012-11-18,57,44,30,34,31,28,100,70,36,30.41,30.33,30.27,10,7,2,12,4,17,0.00,0,,143
2012-11-19,50,44,37,43,36,32,87,75,62,30.27,30.16,30.08,10,8,5,10,3,,0.00,5,Rain,136
2012-11-20,59,46,32,43,38,32,100,77,45,30.14,30.10,30.06,10,6,0,7,0,,0.00,1,Fog,313
2012-11-21,59,44,30,45,36,28,100,81,45,30.15,30.04,29.93,10,5,0,14,3,20,0.00,3,Fog,187
2012-11-22,64,50,37,45,39,28,87,65,40,29.93,29.74,29.62,10,10,7,29,11,38,0.00,2,,206
2012-11-23,35,30,26,27,19,14,74,61,55,30.21,29.99,29.75,10,10,4,23,17,39,0.00,7,Snow,297
2012-11-24,32,28,23,21,13,10,69,54,41,30.23,30.11,29.87,10,10,4,17,8,23,0.00,6,Snow,259
2012-11-25,35,32,28,27,22,14,93,68,51,30.08,29.89,29.80,10,10,2,14,5,22,0.00,6,Snow,276
2012-11-26,30,22,15,21,13,7,74,60,40,30.36,30.24,30.08,10,10,10,14,7,18,0.00,3,Snow,294
2012-11-27,33,22,12,16,11,7,86,59,38,30.35,30.24,30.13,10,10,7,14,5,17,0.00,3,Snow,222
2012-11-28,35,28,21,23,19,14,86,66,44,30.32,30.24,30.16,10,10,10,14,6,18,0.00,1,,256
2012-11-29,44,36,28,30,26,23,93,73,49,30.18,30.14,30.09,10,10,10,13,3,18,0.00,3,,56
2012-11-30,33,32,30,32,29,27,93,88,80,30.22,30.19,30.14,10,8,5,13,8,23,0.00,8,,36